QPF
0.00 0.00 0.00 0.00 0.00 0.00 0.00 0.00 0.00 0.00 0.00 0.00 0.00 0.00 0.02 0.04 0.05 0.03 0.03 0.04 0.06 0.06 0.06 0.05 0.03 0.01 0.01 0.00 0.00 0.01 0.01 0.02 0.02 0.03 0.04 0.03 0.03 0.02 0.01 0.01 0.01 0.01 0.01 0.02
0.00 0.00 0.00 0.00 0.00 0.00 0.00 0.00 0.00 0.00 0.00 0.00 0.00 0.00 0.01 0.01 0.01 0.02 0.03 0.05 0.06 0.05 0.04 0.02 0.00 0.00 0.00 0.00 0.00 0.00 0.00 0.00 0.00 0.00 0.00 0.00 0.00 0.00 0.00 0.00 0.00 0.00 0.00 0.01
0.00 0.00 0.00 0.00 0.00 0.00 0.00 0.00 0.00 0.00 0.00 0.00 0.00 0.00 0.00 0.00 0.01 0.02 0.03 0.03 0.04 0.02 0.01 0.00 0.00 0.00 0.00 0.00 0.00 0.00 0.00 0.00 0.00 0.00 0.00 0.00 0.00 0.00 0.00 0.00 0.00 0.00 0.00 0.00
0.00 0.00 0.00 0.00 0.00 0.00 0.00 0.00 0.00 0.00 0.00 0.00 0.00 0.00 0.00 0.01 0.02 0.03 0.03 0.03 0.01 0.00 0.01 0.00 0.00 0.00 0.00 0.00 0.00 0.00 0.00 0.00 0.00 0.00 0.00 0.00 0.00 0.00 0.00 0.00 0.00 0.00 0.00 0.00
0.00 0.00 0.00 0.00 0.00 0.00 0.00 0.00 0.00 0.00 0.00 0.00 0.00 0.00 0.00 0.01 0.01 0.03 0.04 0.03 0.01 0.00 0.00 0.00 0.00 0.00 0.00 0.00 0.00 0.00 0.00 0.00 0.00 0.00 0.00 0.00 0.00 0.00 0.00 0.00 0.00 0.00 0.00 0.00
0.00 0.00 0.00 0.00 0.00 0.00 0.00 0.00 0.00 0.00 0.00 0.00 0.00 0.00 0.00 0.00 0.00 0.01 0.02 0.02 0.01 0.00 0.00 0.00 0.00 0.00 0.00 0.00 0.00 0.00 0.00 0.00 0.00 0.00 0.00 0.00 0.00 0.00 0.00 0.00 0.00 0.00 0.00 0.00
0.00 0.00 0.00 0.00 0.01 0.00 0.00 0.00 0.00 0.00 0.00 0.00 0.00 0.00 0.00 0.00 0.00 0.00 0.00 0.00 0.00 0.00 0.00 0.00 0.00 0.00 0.00 0.00 0.00 0.00 0.00 0.00 0.00 0.00 0.00 0.00 0.00 0.00 0.00 0.00 0.00 0.00 0.00 0.00
0.00 0.00 0.00 0.00 0.00 0.00 0.00 0.00 0.00 0.00 0.00 0.00 0.00 0.00 0.00 0.00 0.00 0.00 0.00 0.00 0.00 0.00 0.00 0.00 0.00 0.00 0.00 0.00 0.00 0.00 0.00 0.00 0.00 0.00 0.00 0.00 0.00 0.00 0.00 0.00 0.00 0.00 0.00 0.00
0.00 0.00 0.00 0.00 0.00 0.00 0.00 0.00 0.00 0.00 0.00 0.00 0.00 0.00 0.00 0.00 0.00 0.00 0.00 0.00 0.00 0.00 0.00 0.00 0.00 0.00 0.00 0.00 0.00 0.00 0.00 0.00 0.00 0.00 0.00 0.00 0.00 0.00 0.00 0.00 0.00 0.00 0.00 0.00
0.00 0.00 0.00 0.00 0.00 0.00 0.00 0.00 0.00 0.00 0.00 0.00 0.00 0.00 0.00 0.00 0.00 0.00 0.00 0.00 0.00 0.00 0.00 0.00 0.00 0.00 0.00 0.00 0.00 0.00 0.00 0.00 0.00 0.00 0.00 0.00 0.00 0.00 0.00 0.00 0.00 0.00 0.00 0.00
0.00 0.00 0.00 0.00 0.00 0.00 0.00 0.00 0.00 0.00 0.00 0.00 0.00 0.00 0.00 0.00 0.00 0.00 0.00 0.00 0.00 0.00 0.00 0.00 0.00 0.00 0.00 0.00 0.00 0.00 0.00 0.00 0.00 0.00 0.00 0.00 0.00 0.00 0.00 0.00 0.00 0.00 0.00 0.00
0.00 0.00 0.00 0.00 0.00 0.00 0.00 0.00 0.00 0.00 0.00 0.00 0.00 0.00 0.00 0.00 0.00 0.00 0.00 0.00 0.00 0.00 0.00 0.00 0.00 0.00 0.00 0.00 0.00 0.00 0.00 0.00 0.00 0.00 0.00 0.00 0.00 0.00 0.00 0.00 0.00 0.00 0.00 0.00
0.00 0.00 0.00 0.00 0.00 0.00 0.00 0.00 0.00 0.00 0.00 0.00 0.00 0.00 0.00 0.00 0.00 0.00 0.00 0.00 0.00 0.00 0.00 0.00 0.00 0.00 0.00 0.00 0.00 0.00 0.00 0.00 0.00 0.00 0.00 0.00 0.00 0.00 0.00 0.00 0.00 0.00 0.00 0.00
0.00 0.00 0.00 0.00 0.00 0.00 0.00 0.00 0.00 0.00 0.00 0.00 0.00 0.00 0.00 0.00 0.00 0.00 0.00 0.00 0.00 0.00 0.00 0.00 0.00 0.00 0.00 0.00 0.00 0.00 0.00 0.00 0.00 0.00 0.00 0.00 0.00 0.00 0.00 0.00 0.00 0.00 0.00 0.00
0.00 0.00 0.00 0.00 0.00 0.00 0.00 0.00 0.00 0.00 0.00 0.00 0.00 0.00 0.00 0.00 0.00 0.00 0.00 0.00 0.00 0.00 0.00 0.00 0.00 0.00 0.00 0.00 0.00 0.00 0.00 0.00 0.00 0.00 0.00 0.00 0.00 0.00 0.00 0.00 0.00 0.00 0.00 0.00
0.00 0.00 0.00 0.00 0.00 0.00 0.00 0.00 0.00 0.00 0.00 0.00 0.00 0.00 0.00 0.00 0.00 0.00 0.00 0.00 0.00 0.00 0.00 0.01 0.01 0.01 0.00 0.00 0.00 0.00 0.00 0.00 0.00 0.00 0.00 0.00 0.00 0.00 0.00 0.00 0.00 0.00 0.00 0.00
0.00 0.00 0.00 0.00 0.00 0.00 0.00 0.00 0.00 0.00 0.00 0.00 0.00 0.01 0.01 0.01 0.01 0.02 0.04 0.05 0.05 0.06 0.05 0.05 0.04 0.03 0.01 0.00 0.00 0.00 0.00 0.00 0.01 0.01 0.01 0.01 0.01 0.01 0.01 0.01 0.01 0.00 0.00 0.00
0.00 0.00 0.00 0.00 0.00 0.00 0.00 0.00 0.00 0.00 0.00 0.01 0.02 0.04 0.06 0.09 0.12 0.15 0.20 0.20 0.14 0.09 0.06 0.04 0.02 0.01 0.00 0.00 0.00 0.00 0.00 0.01 0.01 0.01 0.02 0.02 0.02 0.02 0.03 0.03 0.02 0.01 0.01 0.00
0.00 0.00 0.00 0.00 0.00 0.00 0.00 0.00 0.00 0.01 0.03 0.05 0.09 0.14 0.20 0.24 0.24 0.20 0.16 0.11 0.07 0.04 0.02 0.01 0.00 0.00 0.00 0.00 0.00 0.00 0.00 0.00 0.01 0.02 0.03 0.04 0.04 0.04 0.05 0.05 0.05 0.04 0.02 0.01
0.00 0.00 0.00 0.00 0.00 0.00 0.00 0.01 0.03 0.05 0.09 0.12 0.15 0.14 0.11 0.08 0.07 0.05 0.02 0.01 0.01 0.00 0.00 0.00 0.00 0.00 0.00 0.00 0.00 0.00 0.00 0.00 0.00 0.01 0.02 0.03 0.05 0.06 0.07 0.09 0.10 0.08 0.05 0.03
0.00 0.00 0.00 0.00 0.00 0.00 0.00 0.01 0.03 0.06 0.10 0.08 0.05 0.03 0.02 0.01 0.01 0.00 0.00 0.00 0.00 0.00 0.00 0.00 0.00 0.00 0.00 0.00 0.00 0.00 0.00 0.00 0.00 0.01 0.01 0.03 0.05 0.08 0.11 0.13 0.13 0.12 0.11 0.06
0.00 0.00 0.00 0.00 0.01 0.01 0.00 0.00 0.01 0.01 0.01 0.01 0.00 0.00 0.00 0.00 0.00 0.00 0.00 0.00 0.00 0.00 0.00 0.00 0.00 0.00 0.00 0.00 0.00 0.00 0.00 0.00 0.00 0.00 0.01 0.02 0.05 0.09 0.12 0.16 0.18 0.20 0.19 0.13
0.00 0.00 0.00 0.00 0.01 0.00 0.00 0.00 0.00 0.00 0.00 0.00 0.00 0.00 0.00 0.00 0.00 0.00 0.00 0.00 0.00 0.00 0.00 0.00 0.00 0.00 0.00 0.00 0.00 0.00 0.00 0.00 0.00 0.00 0.01 0.02 0.06 0.12 0.16 0.19 0.22 0.28 0.31 0.26
0.00 0.00 0.00 0.00 0.00 0.00 0.00 0.00 0.00 0.00 0.00 0.00 0.00 0.00 0.00 0.00 0.00 0.00 0.00 0.00 0.00 0.00 0.00 0.00 0.00 0.00 0.00 0.00 0.00 0.00 0.00 0.00 0.00 0.00 0.00 0.02 0.06 0.12 0.21 0.27 0.29 0.35 0.41 0.37
0.00 0.00 0.00 0.00 0.00 0.00 0.00 0.00 0.00 0.00 0.00 0.00 0.00 0.00 0.00 0.00 0.00 0.00 0.00 0.00 0.00 0.00 0.00 0.00 0.00 0.00 0.00 0.00 0.00 0.00 0.00 0.00 0.00 0.00 0.00 0.02 0.05 0.11 0.21 0.30 0.33 0.37 0.42 0.43
0.00 0.00 0.00 0.00 0.00 0.00 0.00 0.00 0.00 0.00 0.00 0.00 0.00 0.00 0.00 0.00 0.00 0.00 0.00 0.00 0.00 0.00 0.00 0.00 0.00 0.00 0.00 0.00 0.00 0.00 0.00 0.00 0.00 0.00 0.00 0.01 0.04 0.09 0.19 0.30 0.34 0.34 0.36 0.36
MSLP
1012.67 1013.20 1013.55 1013.71 1013.74 1013.69 1013.60 1013.52 1013.46 1013.39 1013.31 1013.19 1013.01 1012.78 1012.51 1012.25 1012.04 1011.89 1011.83 1011.85 1011.90 1011.96 1011.98 1011.93 1011.80 1011.60 1011.38 1011.17 1011.03 1010.98 1011.04 1011.20 1011.43 1011.68 1011.90 1012.05 1012.12 1012.10 1012.00 1011.86 1011.70 1011.55 1011.44 1011.35
1012.91 1013.29 1013.49 1013.56 1013.55 1013.54 1013.57 1013.67 1013.81 1013.97 1014.08 1014.10 1013.99 1013.76 1013.43 1013.05 1012.69 1012.39 1012.20 1012.10 1012.09 1012.11 1012.12 1012.07 1011.94 1011.74 1011.50 1011.25 1011.07 1010.97 1011.00 1011.14 1011.37 1011.64 1011.88 1012.07 1012.17 1012.16 1012.06 1011.89 1011.69 1011.50 1011.33 1011.19
1012.95 1013.17 1013.25 1013.26 1013.26 1013.35 1013.54 1013.85 1014.24 1014.62 1014.91 1015.04 1014.98 1014.70 1014.26 1013.73 1013.18 1012.70 1012.35 1012.14 1012.05 1012.05 1012.06 1012.04 1011.94 1011.77 1011.54 1011.29 1011.09 1010.97 1010.97 1011.10 1011.32 1011.60 1011.87 1012.08 1012.21 1012.22 1012.13 1011.96 1011.74 1011.51 1011.29 1011.09
1012.86 1012.94 1012.93 1012.92 1012.99 1013.20 1013.59 1014.14 1014.75 1015.34 1015.79 1016.00 1015.93 1015.58 1014.99 1014.26 1013.50 1012.83 1012.30 1011.97 1011.81 1011.78 1011.81 1011.83 1011.79 1011.67 1011.48 1011.25 1011.05 1010.92 1010.91 1011.02 1011.23 1011.51 1011.80 1012.05 1012.20 1012.24 1012.17 1012.01 1011.79 1011.53 1011.27 1011.02
1012.77 1012.73 1012.66 1012.66 1012.81 1013.18 1013.77 1014.53 1015.36 1016.12 1016.68 1016.93 1016.82 1016.35 1015.59 1014.66 1013.68 1012.80 1012.11 1011.65 1011.42 1011.38 1011.43 1011.50 1011.53 1011.47 1011.33 1011.13 1010.94 1010.81 1010.78 1010.87 1011.08 1011.35 1011.65 1011.92 1012.11 1012.18 1012.15 1012.01 1011.79 1011.52 1011.23 1010.93
1012.78 1012.65 1012.55 1012.58 1012.82 1013.33 1014.09 1015.03 1016.02 1016.90 1017.51 1017.76 1017.58 1016.99 1016.06 1014.93 1013.77 1012.71 1011.87 1011.31 1011.02 1010.95 1011.03 1011.15 1011.23 1011.23 1011.13 1010.97 1010.79 1010.65 1010.60 1010.67 1010.85 1011.11 1011.41 1011.69 1011.90 1012.02 1012.02 1011.91 1011.71 1011.45 1011.15 1010.81
1012.96 1012.78 1012.66 1012.72 1013.04 1013.66 1014.53 1015.59 1016.66 1017.59 1018.22 1018.43 1018.17 1017.46 1016.40 1015.13 1013.82 1012.64 1011.70 1011.06 1010.73 1010.65 1010.74 1010.88 1011.00 1011.03 1010.96 1010.81 1010.63 1010.47 1010.39 1010.42 1010.57 1010.80 1011.09 1011.37 1011.60 1011.75 1011.78 1011.71 1011.55 1011.30 1010.99 1010.64
1013.33 1013.11 1012.98 1013.07 1013.43 1014.10 1015.03 1016.12 1017.21 1018.13 1018.72 1018.88 1018.55 1017.77 1016.63 1015.29 1013.92 1012.69 1011.70 1011.04 1010.69 1010.59 1010.68 1010.83 1010.95 1010.98 1010.90 1010.74 1010.53 1010.33 1010.20 1010.18 1010.27 1010.46 1010.72 1010.99 1011.22 1011.39 1011.45 1011.42 1011.28 1011.06 1010.77 1010.41
1013.82 1013.58 1013.46 1013.55 1013.92 1014.59 1015.50 1016.55 1017.59 1018.45 1018.99 1019.09 1018.73 1017.94 1016.81 1015.48 1014.15 1012.94 1011.99 1011.34 1010.99 1010.89 1010.95 1011.07 1011.15 1011.14 1011.02 1010.80 1010.54 1010.28 1010.08 1009.99 1010.01 1010.14 1010.35 1010.58 1010.80 1010.97 1011.05 1011.04 1010.94 1010.75 1010.48 1010.15
1014.33 1014.11 1013.99 1014.08 1014.42 1015.03 1015.87 1016.83 1017.77 1018.54 1019.01 1019.09 1018.74 1018.00 1016.96 1015.76 1014.54 1013.45 1012.59 1012.00 1011.67 1011.56 1011.58 1011.64 1011.65 1011.55 1011.35 1011.05 1010.70 1010.35 1010.07 1009.89 1009.83 1009.88 1010.02 1010.20 1010.38 1010.52 1010.60 1010.61 1010.53 1010.37 1010.15 1009.85
1014.74 1014.56 1014.47 1014.54 1014.84 1015.38 1016.10 1016.94 1017.76 1018.44 1018.86 1018.94 1018.66 1018.04 1017.17 1016.16 1015.14 1014.23 1013.51 1013.00 1012.71 1012.58 1012.54 1012.50 1012.40 1012.19 1011.87 1011.46 1011.01 1010.56 1010.18 1009.91 1009.75 1009.71 1009.75 1009.85 1009.97 1010.07 1010.13 1010.13 1010.07 1009.95 1009.77 1009.53
1014.99 1014.87 1014.81 1014.89 1015.15 1015.60 1016.21 1016.93 1017.63 1018.23 1018.62 1018.73 1018.56 1018.11 1017.46 1016.69 1015.91 1015.21 1014.64 1014.24 1013.98 1013.82 1013.69 1013.54 1013.31 1012.97 1012.52 1011.99 1011.43 1010.88 1010.40 1010.02 1009.76 1009.61 1009.55 1009.56 1009.59 1009.63 1009.64 1009.63 1009.58 1009.49 1009.36 1009.20
1015.07 1015.02 1015.02 1015.12 1015.35 1015.74 1016.27 1016.87 1017.49 1018.02 1018.40 1018.58 1018.53 1018.27 1017.85 1017.33 1016.78 1016.28 1015.87 1015.54 1015.29 1015.09 1014.87 1014.60 1014.23 1013.75 1013.17 1012.53 1011.87 1011.23 1010.66 1010.19 1009.82 1009.56 1009.40 1009.29 1009.23 1009.19 1009.15 1009.10 1009.05 1008.99 1008.92 1008.83
1015.04 1015.09 1015.15 1015.29 1015.53 1015.89 1016.35 1016.88 1017.43 1017.92 1018.31 1018.55 1018.62 1018.53 1018.31 1018.01 1017.66 1017.32 1017.01 1016.74 1016.48 1016.21 1015.89 1015.49 1014.99 1014.40 1013.72 1012.99 1012.25 1011.54 1010.90 1010.35 1009.89 1009.53 1009.26 1009.04 1008.88 1008.75 1008.65 1008.56 1008.51 1008.47 1008.45 1008.44
1015.03 1015.17 1015.32 1015.51 1015.78 1016.13 1016.56 1017.05 1017.55 1018.02 1018.41 1018.69 1018.85 1018.88 1018.81 1018.64 1018.43 1018.19 1017.93 1017.65 1017.35 1017.01 1016.59 1016.08 1015.48 1014.80 1014.06 1013.28 1012.50 1011.75 1011.06 1010.46 1009.93 1009.48 1009.11 1008.79 1008.53 1008.31 1008.14 1008.02 1007.95 1007.93 1007.95 1008.00
1015.17 1015.39 1015.62 1015.87 1016.18 1016.54 1016.96 1017.42 1017.88 1018.32 1018.70 1018.99 1019.18 1019.26 1019.25 1019.15 1018.98 1018.75 1018.48 1018.17 1017.80 1017.37 1016.86 1016.27 1015.61 1014.88 1014.11 1013.33 1012.55 1011.80 1011.11 1010.48 1009.91 1009.40 1008.94 1008.54 1008.19 1007.89 1007.66 1007.50 1007.41 1007.39 1007.44 1007.54
1015.59 1015.86 1016.15 1016.46 1016.80 1017.17 1017.58 1018.00 1018.42 1018.81 1019.14 1019.39 1019.54 1019.60 1019.56 1019.43 1019.22 1018.95 1018.61 1018.22 1017.77 1017.26 1016.68 1016.04 1015.36 1014.63 1013.88 1013.13 1012.40 1011.69 1011.02 1010.39 1009.80 1009.26 1008.75 1008.28 1007.87 1007.51 1007.22 1007.02 1006.91 1006.88 1006.94 1007.08
1016.32 1016.63 1016.95 1017.28 1017.63 1017.99 1018.37 1018.75 1019.10 1019.40 1019.64 1019.79 1019.84 1019.80 1019.66 1019.43 1019.13 1018.75 1018.31 1017.82 1017.28 1016.70 1016.08 1015.43 1014.76 1014.07 1013.39 1012.71 1012.05 1011.41 1010.79 1010.20 1009.63 1009.07 1008.54 1008.04 1007.58 1007.18 1006.86 1006.62 1006.48 1006.44 1006.49 1006.63
1017.35 1017.65 1017.96 1018.28 1018.60 1018.93 1019.24 1019.53 1019.78 1019.97 1020.07 1020.08 1020.00 1019.81 1019.52 1019.15 1018.70 1018.20 1017.64 1017.05 1016.44 1015.81 1015.17 1014.54 1013.90 1013.29 1012.68 1012.10 1011.53 1010.98 1010.44 1009.91 1009.37 1008.84 1008.32 1007.82 1007.34 1006.92 1006.58 1006.31 1006.15 1006.08 1006.11 1006.22
1018.54 1018.82 1019.09 1019.35 1019.61 1019.86 1020.07 1020.25 1020.36 1020.40 1020.35 1020.20 1019.94 1019.59 1019.14 1018.61 1018.02 1017.38 1016.72 1016.05 1015.37 1014.72 1014.08 1013.47 1012.90 1012.35 1011.84 1011.35 1010.88 1010.43 1009.97 1009.50 1009.03 1008.55 1008.06 1007.58 1007.13 1006.71 1006.36 1006.09 1005.90 1005.80 1005.79 1005.87
1019.77 1019.99 1020.20 1020.38 1020.53 1020.66 1020.75 1020.78 1020.74 1020.62 1020.40 1020.08 1019.66 1019.14 1018.54 1017.87 1017.16 1016.42 1015.67 1014.93 1014.22 1013.54 1012.91 1012.34 1011.81 1011.33 1010.89 1010.49 1010.10 1009.73 1009.35 1008.97 1008.57 1008.15 1007.73 1007.31 1006.90 1006.52 1006.18 1005.91 1005.71 1005.58 1005.54 1005.57
1020.88 1021.04 1021.15 1021.23 1021.26 1021.25 1021.18 1021.06 1020.86 1020.57 1020.20 1019.72 1019.16 1018.51 1017.79 1017.02 1016.22 1015.40 1014.59 1013.81 1013.07 1012.38 1011.75 1011.19 1010.69 1010.25 1009.85 1009.50 1009.18 1008.87 1008.57 1008.26 1007.95 1007.62 1007.27 1006.93 1006.59 1006.26 1005.97 1005.72 1005.52 1005.38 1005.30 1005.29
1021.75 1021.85 1021.87 1021.83 1021.72 1021.56 1021.34 1021.06 1020.71 1020.28 1019.77 1019.18 1018.51 1017.77 1016.97 1016.13 1015.27 1014.41 1013.56 1012.75 1011.98 1011.27 1010.63 1010.05 1009.54 1009.10 1008.72 1008.38 1008.09 1007.83 1007.59 1007.35 1007.12 1006.89 1006.64 1006.40 1006.14 1005.90 1005.66 1005.45 1005.26 1005.12 1005.03 1005.00
1022.35 1022.38 1022.31 1022.15 1021.91 1021.61 1021.25 1020.82 1020.34 1019.79 1019.18 1018.50 1017.76 1016.97 1016.13 1015.26 1014.37 1013.49 1012.62 1011.77 1010.97 1010.22 1009.53 1008.91 1008.36 1007.88 1007.46 1007.12 1006.83 1006.59 1006.39 1006.23 1006.08 1005.94 1005.81 1005.67 1005.52 1005.36 1005.19 1005.03 1004.88 1004.75 1004.66 1004.63
1022.66 1022.63 1022.47 1022.21 1021.86 1021.43 1020.94 1020.40 1019.81 1019.18 1018.49 1017.77 1016.99 1016.18 1015.33 1014.45 1013.56 1012.66 1011.76 1010.88 1010.02 1009.21 1008.45 1007.75 1007.12 1006.57 1006.10 1005.71 1005.40 1005.17 1005.01 1004.91 1004.85 1004.81 1004.78 1004.74 1004.70 1004.63 1004.54 1004.43 1004.33 1004.23 1004.16 1004.14
1022.75 1022.66 1022.42 1022.07 1021.62 1021.09 1020.51 1019.88 1019.22 1018.52 1017.80 1017.05 1016.26 1015.45 1014.60 1013.72 1012.82 1011.89 1010.96 1010.03 1009.10 1008.21 1007.35 1006.55 1005.83 1005.19 1004.64 1004.21 1003.88 1003.65 1003.52 1003.47 1003.49 1003.54 1003.60 1003.67 1003.71 1003.73 1003.71 1003.66 1003.59 1003.53 1003.49 1003.50
Thickness
5755 5741 5734 5742 5749 5752 5750 5745 5744 5755 5770 5764 5758 5761 5769 5777 5779 5777 5774 5769 5765 5766 5769 5770 5770 5768 5764 5761 5758 5755 5751 5749 5746 5741 5738 5735 5733 5733 5732 5730 5728 5726 5724 5723
5738 5736 5750 5757 5756 5751 5746 5741 5742 5751 5761 5757 5751 5751 5759 5764 5767 5768 5765 5760 5759 5759 5760 5762 5762 5760 5757 5755 5752 5749 5746 5743 5739 5736 5733 5730 5728 5727 5725 5723 5721 5719 5717 5715
5736 5747 5762 5759 5752 5746 5743 5740 5741 5743 5748 5748 5745 5735 5743 5753 5758 5761 5759 5757 5755 5754 5753 5755 5754 5752 5751 5749 5747 5744 5741 5737 5733 5730 5726 5722 5719 5717 5714 5713 5711 5710 5708 5707
5743 5755 5759 5755 5751 5748 5735 5749 5747 5741 5730 5720 5729 5706 5729 5738 5742 5746 5749 5749 5750 5751 5752 5750 5749 5747 5746 5745 5743 5739 5736 5732 5728 5725 5720 5715 5710 5707 5705 5703 5702 5701 5700 5699
5739 5753 5753 5748 5752 5754 5745 5748 5739 5731 5724 5711 5712 5701 5710 5730 5731 5736 5740 5743 5746 5749 5749 5747 5747 5746 5744 5741 5737 5734 5730 5727 5725 5722 5718 5713 5708 5704 5701 5697 5694 5692 5691 5690
5745 5757 5757 5754 5757 5755 5748 5733 5719 5706 5698 5690 5704 5694 5698 5714 5726 5733 5736 5740 5745 5747 5746 5746 5745 5742 5738 5736 5732 5729 5725 5723 5721 5718 5714 5710 5705 5701 5696 5692 5688 5685 5682 5681
5730 5743 5755 5759 5748 5746 5735 5709 5682 5678 5670 5676 5694 5690 5694 5723 5732 5735 5738 5741 5745 5745 5742 5740 5739 5736 5733 5730 5728 5725 5721 5719 5717 5713 5710 5706 5701 5696 5691 5687 5683 5679 5676 5674
5712 5712 5741 5751 5744 5732 5729 5710 5681 5669 5662 5671 5686 5685 5706 5732 5738 5739 5739 5739 5738 5735 5733 5732 5732 5730 5728 5727 5725 5722 5718 5715 5712 5708 5704 5700 5695 5691 5686 5682 5678 5674 5670 5668
5712 5714 5742 5747 5749 5740 5720 5708 5703 5679 5672 5663 5673 5690 5711 5731 5734 5734 5731 5727 5724 5723 5724 5723 5724 5723 5722 5722 5720 5718 5714 5710 5706 5702 5697 5692 5689 5685 5681 5678 5673 5669 5666 5663
5727 5715 5729 5736 5742 5737 5727 5706 5686 5674 5661 5655 5668 5679 5687 5706 5712 5717 5715 5712 5709 5708 5707 5707 5708 5710 5710 5710 5708 5706 5704 5702 5699 5695 5690 5687 5683 5681 5677 5673 5669 5665 5661 5658
5732 5711 5714 5719 5719 5714 5715 5704 5683 5669 5665 5653 5650 5669 5693 5692 5695 5696 5695 5692 5689 5689 5690 5691 5693 5694 5695 5696 5695 5694 5692 5690 5688 5686 5683 5680 5678 5675 5671 5667 5664 5661 5657 5653
5718 5701 5694 5703 5717 5719 5715 5706 5684 5672 5666 5654 5647 5662 5689 5685 5682 5681 5677 5677 5676 5675 5675 5676 5676 5678 5679 5679 5679 5679 5678 5678 5677 5677 5675 5673 5671 5668 5665 5662 5660 5656 5652 5649
5715 5700 5684 5686 5695 5708 5707 5702 5691 5673 5660 5647 5643 5663 5675 5670 5667 5664 5661 5660 5660 5660 5660 5659 5659 5659 5659 5661 5662 5663 5664 5664 5666 5666 5666 5665 5664 5662 5660 5658 5655 5651 5648 5645
5721 5700 5689 5683 5685 5696 5697 5698 5692 5668 5652 5648 5654 5663 5655 5650 5646 5643 5642 5641 5641 5641 5641 5640 5640 5640 5641 5642 5644 5646 5648 5650 5652 5654 5655 5657 5658 5657 5655 5653 5650 5646 5643 5640
5720 5701 5697 5695 5699 5697 5692 5690 5687 5677 5664 5653 5653 5640 5630 5629 5627 5626 5625 5624 5624 5624 5623 5622 5622 5622 5623 5625 5627 5629 5631 5634 5637 5640 5643 5647 5649 5650 5649 5647 5644 5641 5638 5636
5709 5702 5696 5694 5699 5694 5685 5681 5676 5665 5653 5648 5637 5619 5615 5617 5617 5614 5612 5610 5607 5605 5604 5604 5604 5604 5605 5607 5610 5612 5614 5617 5620 5623 5627 5632 5636 5639 5641 5641 5638 5635 5632 5630
5697 5690 5683 5676 5684 5684 5664 5656 5655 5636 5626 5621 5613 5604 5605 5605 5603 5599 5597 5593 5589 5588 5587 5587 5587 5587 5588 5590 5592 5594 5597 5600 5603 5606 5610 5614 5619 5623 5627 5629 5629 5627 5626 5623
5687 5679 5668 5664 5672 5660 5639 5644 5637 5622 5612 5609 5603 5598 5594 5591 5590 5587 5584 5580 5578 5578 5577 5576 5575 5575 5575 5575 5576 5577 5579 5581 5584 5587 5591 5595 5599 5604 5609 5613 5615 5617 5616 5615
5686 5675 5658 5648 5651 5651 5638 5634 5627 5621 5604 5597 5593 5592 5591 5589 5586 5584 5580 5575 5570 5567 5564 5562 5561 5559 5558 5556 5554 5555 5558 5560 5561 5564 5568 5572 5576 5582 5587 5593 5599 5602 5604 5604
5675 5667 5653 5645 5643 5634 5615 5619 5622 5613 5596 5588 5583 5580 5580 5574 5567 5572 5569 5562 5556 5551 5546 5543 5541 5538 5536 5535 5530 5529 5534 5536 5538 5541 5545 5549 5553 5558 5564 5571 5580 5586 5591 5594
5656 5648 5641 5635 5630 5614 5601 5607 5610 5587 5576 5577 5574 5569 5563 5554 5551 5554 5549 5541 5536 5532 5529 5525 5521 5520 5520 5516 5509 5509 5513 5515 5519 5521 5524 5528 5533 5537 5544 5551 5559 5569 5577 5581
5635 5629 5624 5617 5612 5600 5596 5593 5581 5573 5573 5568 5562 5555 5547 5542 5537 5531 5526 5521 5515 5510 5507 5503 5499 5501 5502 5497 5490 5491 5494 5497 5500 5504 5508 5514 5519 5524 5531 5535 5543 5552 5561 5568
5618 5612 5609 5600 5593 5589 5587 5582 5578 5570 5561 5554 5545 5538 5528 5520 5515 5510 5506 5502 5498 5496 5494 5493 5490 5492 5493 5490 5485 5484 5488 5489 5490 5495 5501 5507 5511 5515 5518 5522 5528 5537 5548 5556
5612 5606 5599 5591 5589 5586 5581 5575 5568 5558 5548 5539 5529 5518 5507 5498 5495 5492 5491 5489 5487 5486 5486 5487 5486 5488 5490 5489 5487 5486 5487 5486 5487 5491 5497 5501 5504 5506 5508 5511 5515 5522 5534 5544
5604 5598 5588 5582 5580 5576 5573 5566 5558 5548 5534 5522 5512 5502 5491 5484 5484 5482 5482 5482 5482 5483 5483 5483 5483 5485 5487 5487 5487 5487 5486 5484 5484 5486 5491 5495 5497 5499 5501 5503 5506 5511 5521 5532
5599 5591 5582 5574 5574 5564 5561 5556 5545 5531 5518 5506 5496 5490 5486 5480 5478 5478 5479 5479 5479 5480 5481 5481 5481 5482 5483 5483 5483 5482 5482 5480 5478 5480 5483 5487 5490 5493 5495 5498 5501 5505 5513 5525